User: anonymous   Login
Location: Unspecified
(0.0000°N, 0.0000°E)
Time: 18:55:40
(UTC+00:00)
Language:

AEROCUBE 6A - Orbit

View from above orbital plane
View from above orbital plane
View from above satellite
View from above satellite

Ground track
Ground track

The orbit data is extracted from the following two-line orbital elements,

1 40045U 14033AM  17084.81904807 +.00000454 +00000-0 +73727-4 0  9994
2 40045 097.8796 332.8341 0057694 197.0747 162.8522 14.74731384148439
Epoch (UTC): 25 March 2017 19:39:25
Eccentricity: 0.0057694
inclination: 97.8796°
perigee height: 605 km
apogee height: 686 km
right ascension of ascending node: 332.8341°
argument of perigee: 197.0747°
revolutions per day: 14.74731384
mean anomaly at epoch: 162.8522°
orbit number at epoch: 14843

The dashed part of the orbit path shows where the satellite is in the earth's shadow,  

DLR